(143712) = 2003 UD142

Discovered at Anderson Mesa on 2003-10-18 by LONEOS.

Orbit

Orbit type: Main Belt

Note: WebGL enabled browser required.

epoch2023-09-13.0
epoch JD2460200.5
perihelion date2021-04-01.62719
perihelion JD2459306.12719
argument of perihelion (°)111.55463
ascending node (°)60.00209
inclination (°)12.54079
eccentricity0.0527503
perihelion distance (AU)2.8117376
Tisserand w.r.t. Jupiter3.2
ΔV w.r.t. Earth (km/sec)11.2
semimajor axis (AU)2.9683171
mean anomaly (°)172.36814
mean daily motion (°/day)0.19272520
aphelion distance (AU)3.125
period (years)5.11
P-vector [x]-0.96994430
P-vector [y]0.04420437
P-vector [z]0.23927815
Q-vector [x]-0.15442143
Q-vector [y]-0.87178562
Q-vector [z]-0.46491273
absolute magnitude15.35
phase slope0.15
uncertainty0
referenceMPO 777834
observations used482
oppositions17
arc length (days)10024
first opposition used1996
last opposition used2023
residual rms (arc-secs)0.79
perturbers coarse indicatorM-v
perturbers precise indicator003Ek
first observation date used1996-05-23.0
last observation date used2023-11-02.0
computer nameMPCLINUX
JD of orbit computation2456639.608082
perihelion JD uncertainty (days)4.5188E-04
argument of perihelion uncertainty (°)9.9809E-05
ascending node uncertainty (°)5.2615E-05
inclination uncertainty (°)9.4596E-06
eccentricity uncertainty 1.4369E-07
perihelion distance uncertainty (AU)4.0106E-07
Minimum Orbit Intersection Distances (in AU)
for orbit epoch: 2460200.5, reference: E2023-V10
Mercury2.40724
Venus2.10142
Earth1.83968
Mars1.21301
Jupiter1.90231
Saturn6.08963
Uranus15.6977
Neptune26.7578

Observations

504 total observations over interval: 1996 05 23.18681 – 2023 11 02.291949
These data are available for download (format description).

Date (UT) J2000 RA J2000 Dec Magn Location Ref
1996 05 23.18681 14 37 14.23 -10 58 34.8 18.7   809 – European Southern Observatory, La Silla MPS 178424
1996 05 23.20000 14 37 13.60 -10 58 36.2   809 – European Southern Observatory, La Silla MPS 178424
1996 05 23.21319 14 37 12.90 -10 58 36.3   809 – European Southern Observatory, La Silla MPS 178424
2000 01 29.24507 07 39 04.06 +37 15 51.0 19.6   704 – Lincoln Laboratory ETS, New Mexico MPS 173897
2000 01 29.26055 07 39 03.12 +37 15 54.6 19.3   704 – Lincoln Laboratory ETS, New Mexico MPS 173897
2000 01 29.27679 07 39 02.24 +37 15 56.7 19.1   704 – Lincoln Laboratory ETS, New Mexico MPS 173897
2000 01 29.29271 07 39 01.28 +37 15 59.5 19.2   704 – Lincoln Laboratory ETS, New Mexico MPS 173897
2000 04 04.181920 07 32 57.490 +34 53 15.78 20.59 V 645 – Apache Point-Sloan Digital Sky Survey MPS 173897
2000 04 04.185392 07 32 57.650 +34 53 14.84 21.45   645 – Apache Point-Sloan Digital Sky Survey MPS 173897
2000 04 05.119818 07 33 42.165 +34 48 56.39 21.07 V 645 – Apache Point-Sloan Digital Sky Survey MPS 173897
2000 04 05.123290 07 33 42.325 +34 48 55.40 21.89   645 – Apache Point-Sloan Digital Sky Survey MPS 173897
2001 03 26.58714 14 33 43.17 -04 19 58.5 20.9   608 – Haleakala-AMOS MPS 173897
2001 03 26.59767 14 33 42.86 -04 19 58.5 20.3   608 – Haleakala-AMOS MPS 173897
2001 03 26.60839 14 33 42.44 -04 19 57.1 20.4   608 – Haleakala-AMOS MPS 173897
2001 04 16.32840 14 18 46.52 -03 48 16.7 18.9   704 – Lincoln Laboratory ETS, New Mexico MPS 173897
2001 04 16.34221 14 18 45.89 -03 48 15.8 19.3   704 – Lincoln Laboratory ETS, New Mexico MPS 173897
2001 04 16.35586 14 18 44.96 -03 48 14.0 19.0   704 – Lincoln Laboratory ETS, New Mexico MPS 173897
2001 04 16.36943 14 18 44.25 -03 48 12.4 18.7   704 – Lincoln Laboratory ETS, New Mexico MPS 173897
2002 07 16.31538 20 38 01.67 -35 09 35.7 20.0   644 – Palomar Mountain/NEAT MPS 173897
2002 07 16.33635 20 38 00.51 -35 09 43.0 20.5   644 – Palomar Mountain/NEAT MPS 173897
2002 07 16.35852 20 37 59.35 -35 09 50.7 20.2   644 – Palomar Mountain/NEAT MPS 173897
2003 10 05.29839 01 44 07.72 -02 07 13.0 20.0 V 691 – Steward Observatory, Kitt Peak-Spacewatch MPS 93740
2003 10 05.32587 01 44 06.36 -02 07 17.6 20.2 V 691 – Steward Observatory, Kitt Peak-Spacewatch MPS 93740
2003 10 05.35313 01 44 05.03 -02 07 22.5 20.2 V 691 – Steward Observatory, Kitt Peak-Spacewatch MPS 93740
2003 10 18.31243 01 33 15.52 -02 39 28.8 19.0 R 699 – Lowell Observatory-LONEOS MPS 89761
2003 10 18.32070 01 33 15.21 -02 39 30.1   699 – Lowell Observatory-LONEOS MPS 89761
2003 10 18.32904 01 33 14.71 -02 39 31.3   699 – Lowell Observatory-LONEOS MPS 89761
2003 10 18.33740 01 33 14.22 -02 39 31.1   699 – Lowell Observatory-LONEOS MPS 89761
2003 10 21.26669 01 30 44.04 -02 44 44.2 19.1   644 – Palomar Mountain/NEAT MPS 89761
2003 10 21.33760 01 30 40.32 -02 44 50.9 19.4   644 – Palomar Mountain/NEAT MPS 89761
2003 10 21.40223 01 30 36.95 -02 44 57.0 19.8   644 – Palomar Mountain/NEAT MPS 89761
2003 10 23.27497 01 29 01.68 -02 47 45.8 20.2 V 691 – Steward Observatory, Kitt Peak-Spacewatch MPS 93740
2003 10 23.30157 01 29 00.28 -02 47 48.3 19.8 V 691 – Steward Observatory, Kitt Peak-Spacewatch MPS 93740
2003 10 23.32912 01 28 58.84 -02 47 50.6 19.8 V 691 – Steward Observatory, Kitt Peak-Spacewatch MPS 93740
2004 12 14.33862 07 18 17.41 +33 48 10.1 19.5 R 699 – Lowell Observatory-LONEOS MPS 173897
2004 12 14.35409 07 18 16.66 +33 48 15.8   699 – Lowell Observatory-LONEOS MPS 173897
2004 12 14.36959 07 18 15.88 +33 48 21.4   699 – Lowell Observatory-LONEOS MPS 173897
2004 12 14.38510 07 18 15.14 +33 48 27.6   699 – Lowell Observatory-LONEOS MPS 173897
2005 01 06.26515 06 56 19.83 +35 47 56.0 19.0 R 703 – Catalina Sky Survey MPS 173897
2005 01 06.27009 06 56 19.46 +35 47 57.5 18.8 R 703 – Catalina Sky Survey MPS 173897
2005 01 06.27493 06 56 19.14 +35 47 58.3 18.8 R 703 – Catalina Sky Survey MPS 173897
2005 01 06.27977 06 56 18.85 +35 48 00.2 19.4 R 703 – Catalina Sky Survey MPS 173897
2006 04 07.28528 13 38 54.56 +03 12 33.4 18.8 V 703 – Catalina Sky Survey MPS 169162
2006 04 07.29344 13 38 54.16 +03 12 34.9 18.9 V 703 – Catalina Sky Survey MPS 169162
2006 04 07.30150 13 38 53.80 +03 12 36.8 18.8 V 703 – Catalina Sky Survey MPS 169162
2006 04 07.30958 13 38 53.30 +03 12 37.2 18.7 V 703 – Catalina Sky Survey MPS 169162
2006 04 19.33279 13 28 25.78 +03 30 41.1 19.1 V 703 – Catalina Sky Survey MPS 169162
2006 04 19.34143 13 28 25.28 +03 30 41.9 18.9 V 703 – Catalina Sky Survey MPS 169162
2006 04 19.35006 13 28 24.74 +03 30 42.7 18.9 V 703 – Catalina Sky Survey MPS 169162
2006 04 19.35866 13 28 24.42 +03 30 41.8 19.9 V 703 – Catalina Sky Survey MPS 169162
2006 04 19.39206 13 28 22.66 +03 30 44.6 19.0 R 644 – Palomar Mountain/NEAT MPS 169162
2006 04 19.39325 13 28 22.57 +03 30 44.8 19.2 R 644 – Palomar Mountain/NEAT MPS 169162
2006 04 19.41302 13 28 21.54 +03 30 45.3 19.2 R 644 – Palomar Mountain/NEAT MPS 169162
2006 04 19.41420 13 28 21.47 +03 30 45.5 19.7 R 644 – Palomar Mountain/NEAT MPS 169162
2006 04 19.44023 13 28 20.08 +03 30 46.8 19.4 R 644 – Palomar Mountain/NEAT MPS 169162
2006 04 19.44142 13 28 20.04 +03 30 46.6 19.1 R 644 – Palomar Mountain/NEAT MPS 169162
2006 04 23.28652 13 25 03.72 +03 32 38.7 19.2 R 699 – Lowell Observatory-LONEOS MPS 169901
2006 04 23.31208 13 25 02.42 +03 32 39.6   699 – Lowell Observatory-LONEOS MPS 169901
2006 04 23.33763 13 25 01.16 +03 32 39.5   699 – Lowell Observatory-LONEOS MPS 169901
2006 04 23.36322 13 24 59.70 +03 32 40.7   699 – Lowell Observatory-LONEOS MPS 169901
2006 04 25.24689 13 23 26.14 +03 32 46.7 19.1 C 704 – Lincoln Laboratory ETS, New Mexico MPS 294232
2006 04 25.25720 13 23 25.52 +03 32 45.6 18.8 C 704 – Lincoln Laboratory ETS, New Mexico MPS 294232
2006 04 25.26752 13 23 25.01 +03 32 46.6 19.0 C 704 – Lincoln Laboratory ETS, New Mexico MPS 294232
2006 04 25.27791 13 23 24.53 +03 32 47.1 19.1 C 704 – Lincoln Laboratory ETS, New Mexico MPS 294232
2006 04 25.28824 13 23 24.01 +03 32 46.1 18.3 C 704 – Lincoln Laboratory ETS, New Mexico MPS 294232
2006 05 01.23632 13 18 43.92 +03 29 34.6 20.1 V 703 – Catalina Sky Survey MPS 170823
2006 05 01.24388 13 18 43.30 +03 29 33.7 19.5 V 703 – Catalina Sky Survey MPS 170823
2006 05 01.25140 13 18 43.09 +03 29 32.5 19.5 V 703 – Catalina Sky Survey MPS 170823
2006 05 01.25891 13 18 42.62 +03 29 32.6 19.4 V 703 – Catalina Sky Survey MPS 170823
2008 10 08.31604 01 02 12.58 -08 12 06.8 19.2 V 703 – Catalina Sky Survey MPS 260141
2008 10 08.32341 01 02 12.30 -08 12 07.2 19.3 V 703 – Catalina Sky Survey MPS 260141
2008 10 08.33066 01 02 11.76 -08 12 08.7 19.7 V 703 – Catalina Sky Survey MPS 260141
2008 10 08.33788 01 02 11.47 -08 12 11.3 20.5 V 703 – Catalina Sky Survey MPS 260141
2008 10 26.26808 00 47 50.31 -08 33 12.4 20.3 V 703 – Catalina Sky Survey MPS 262867
2008 10 26.27661 00 47 49.99 -08 33 10.1 20.3 V 703 – Catalina Sky Survey MPS 262867
2008 10 26.28510 00 47 49.63 -08 33 11.0 20.6 V 703 – Catalina Sky Survey MPS 262867
2008 10 26.29374 00 47 49.20 -08 33 10.4 20.1 V 703 – Catalina Sky Survey MPS 262867
2008 10 29.22946 00 45 46.53 -08 31 52.0   704 – Lincoln Laboratory ETS, New Mexico MPS 406772
2008 10 29.24104 00 45 46.08 -08 31 51.6   704 – Lincoln Laboratory ETS, New Mexico MPS 406772
2010 03 12.106120 05 46 28.31 +33 38 26.3   C51 – WISE MPS 336887
2010 03 12.238424 05 46 34.608 +33 38 18.42   C51 – WISE MPS 926409
2010 03 12.370728 05 46 40.320 +33 38 10.03   C51 – WISE MPS 926409
2010 03 12.503032 05 46 46.38 +33 38 03.1   C51 – WISE MPS 336887
2010 03 12.503160 05 46 46.42 +33 38 02.1   C51 – WISE MPS 336887
2010 03 12.767767 05 46 58.50 +33 37 45.6   C51 – WISE MPS 336887
2010 03 12.833855 05 47 01.60 +33 37 43.7   C51 – WISE MPS 336887
2010 03 13.098591 05 47 13.89 +33 37 27.3   C51 – WISE MPS 336887
2010 03 13.363199 05 47 26.20 +33 37 09.8   C51 – WISE MPS 336887
2011 03 01.36012 13 18 50.72 +08 08 25.9 19.5   704 – Lincoln Laboratory ETS, New Mexico MPS 373086
2011 03 01.37471 13 18 50.37 +08 08 28.7 19.8   704 – Lincoln Laboratory ETS, New Mexico MPS 373086
2011 03 01.38875 13 18 50.06 +08 08 32.4 20.2   704 – Lincoln Laboratory ETS, New Mexico MPS 373086
